Time,TemperatureF,DewpointF,PressureIn,WindDirection,WindDirectionDegrees,WindSpeedMPH,WindSpeedGustMPH,Humidity,HourlyPrecipIn,Conditions,Clouds,dailyrainin,SoftwareType,DateUTC
2014-12-27 00:00:00,47.3,32.0,30.20,SSW,196,0.0,0.0,47,0.00,,---,0.00,cosweather0.1e,2014-12-27 08:00:00,
2014-12-27 00:05:00,46.8,32.0,30.20,East,79,0.0,0.0,47,0.00,,---,0.00,cosweather0.1e,2014-12-27 08:05:00,
2014-12-27 00:10:00,46.4,32.0,30.20,NNE,15,0.0,0.0,47,0.00,,---,0.00,cosweather0.1e,2014-12-27 08:10:00,
2014-12-27 00:15:00,46.0,32.0,30.20,NE,44,0.0,0.0,48,0.00,,---,0.00,cosweather0.1e,2014-12-27 08:15:00,
2014-12-27 00:20:00,46.2,32.0,30.20,NE,44,0.0,0.0,48,0.00,,---,0.00,cosweather0.1e,2014-12-27 08:20:00,
2014-12-27 00:25:00,46.4,32.0,30.20,NE,44,0.0,0.0,48,0.00,,---,0.00,cosweather0.1e,2014-12-27 08:25:00,
2014-12-27 00:30:00,46.6,32.0,30.20,NE,44,0.0,0.0,48,0.00,,---,0.00,cosweather0.1e,2014-12-27 08:30:00,
2014-12-27 00:35:00,46.6,32.0,30.20,NE,43,0.0,0.0,48,0.00,,---,0.00,cosweather0.1e,2014-12-27 08:35:00,
2014-12-27 00:40:00,46.4,32.0,30.20,NE,44,0.0,0.0,48,0.00,,---,0.00,cosweather0.1e,2014-12-27 08:40:00,
2014-12-27 00:45:00,46.4,32.0,30.20,NE,44,0.0,0.0,48,0.00,,---,0.00,cosweather0.1e,2014-12-27 08:45:00,
2014-12-27 00:50:00,46.2,32.0,30.20,NE,44,0.0,0.0,48,0.00,,---,0.00,cosweather0.1e,2014-12-27 08:50:00,
2014-12-27 00:55:00,46.4,32.0,30.20,NE,44,0.0,0.0,48,0.00,,---,0.00,cosweather0.1e,2014-12-27 08:55:00,
2014-12-27 01:00:00,46.4,32.0,30.20,NE,44,0.0,0.0,48,0.00,,---,0.00,cosweather0.1e,2014-12-27 09:00:00,
2014-12-27 01:05:00,46.4,32.0,30.20,North,6,0.0,0.0,48,0.00,,---,0.00,cosweather0.1e,2014-12-27 09:05:00,
2014-12-27 01:10:00,46.2,32.0,30.20,North,6,0.0,0.0,48,0.00,,---,0.00,cosweather0.1e,2014-12-27 09:10:00,
2014-12-27 01:15:00,46.0,32.0,30.20,NNE,24,0.0,0.0,48,0.00,,---,0.00,cosweather0.1e,2014-12-27 09:15:00,
2014-12-27 01:20:00,45.9,32.0,30.20,North,11,0.0,0.0,49,0.00,,---,0.00,cosweather0.1e,2014-12-27 09:20:00,
2014-12-27 01:25:00,45.9,32.0,30.20,North,10,0.0,0.0,49,0.00,,---,0.00,cosweather0.1e,2014-12-27 09:25:00,
2014-12-27 01:30:00,45.7,32.0,30.20,North,11,0.0,0.0,49,0.00,,---,0.00,cosweather0.1e,2014-12-27 09:30:00,
2014-12-27 01:35:00,45.5,32.0,30.20,North,11,0.0,0.0,49,0.00,,---,0.00,cosweather0.1e,2014-12-27 09:35:00,
2014-12-27 01:40:00,45.5,32.0,30.20,North,11,0.0,0.0,49,0.00,,---,0.00,cosweather0.1e,2014-12-27 09:40:00,
2014-12-27 01:45:00,45.5,32.0,30.20,North,11,0.0,0.0,49,0.00,,---,0.00,cosweather0.1e,2014-12-27 09:45:00,
2014-12-27 01:50:00,45.3,32.0,30.20,North,11,0.0,0.0,50,0.00,,---,0.00,cosweather0.1e,2014-12-27 09:50:00,
2014-12-27 01:55:00,45.3,32.0,30.20,North,11,0.0,0.0,51,0.00,,---,0.00,cosweather0.1e,2014-12-27 09:55:00,
2014-12-27 02:00:00,45.5,32.0,30.20,North,10,0.0,0.0,51,0.00,,---,0.00,cosweather0.1e,2014-12-27 10:00:00,
2014-12-27 02:05:00,45.5,32.0,30.20,North,11,0.0,0.0,51,0.00,,---,0.00,cosweather0.1e,2014-12-27 10:05:00,
2014-12-27 02:10:00,45.1,32.0,30.20,North,11,0.0,0.0,51,0.00,,---,0.00,cosweather0.1e,2014-12-27 10:10:00,
2014-12-27 02:15:00,45.0,32.0,30.20,North,11,0.0,0.0,52,0.00,,---,0.00,cosweather0.1e,2014-12-27 10:15:00,
2014-12-27 02:20:00,45.1,32.0,30.20,North,11,0.0,0.0,53,0.00,,---,0.00,cosweather0.1e,2014-12-27 10:20:00,
2014-12-27 02:25:00,45.3,32.0,30.20,North,11,0.0,0.0,53,0.00,,---,0.00,cosweather0.1e,2014-12-27 10:25:00,
2014-12-27 02:30:00,45.3,32.0,30.20,North,11,0.0,0.0,53,0.00,,---,0.00,cosweather0.1e,2014-12-27 10:30:00,
2014-12-27 02:35:00,45.3,32.0,30.20,North,11,0.0,0.0,52,0.00,,---,0.00,cosweather0.1e,2014-12-27 10:35:00,
2014-12-27 02:41:00,45.0,32.0,30.20,North,10,0.0,0.0,52,0.00,,---,0.00,cosweather0.1e,2014-12-27 10:41:00,
2014-12-27 02:46:00,44.8,32.0,30.20,North,11,0.0,0.0,52,0.00,,---,0.00,cosweather0.1e,2014-12-27 10:46:00,
2014-12-27 02:51:00,44.8,32.0,30.20,North,11,0.0,0.0,53,0.00,,---,0.00,cosweather0.1e,2014-12-27 10:51:00,
2014-12-27 02:56:00,44.8,32.0,30.20,North,11,0.0,0.0,53,0.00,,---,0.00,cosweather0.1e,2014-12-27 10:56:00,
2014-12-27 03:01:00,45.0,32.0,30.20,North,11,0.0,0.0,53,0.00,,---,0.00,cosweather0.1e,2014-12-27 11:01:00,
2014-12-27 03:06:00,45.0,32.0,30.20,North,11,0.0,0.0,53,0.00,,---,0.00,cosweather0.1e,2014-12-27 11:06:00,
2014-12-27 03:11:00,44.8,32.0,30.20,North,11,0.0,0.0,53,0.00,,---,0.00,cosweather0.1e,2014-12-27 11:11:00,
2014-12-27 03:16:00,45.0,32.0,30.20,North,11,0.0,0.0,53,0.00,,---,0.00,cosweather0.1e,2014-12-27 11:16:00,
2014-12-27 03:21:00,44.8,32.0,30.20,North,11,0.0,0.0,53,0.00,,---,0.00,cosweather0.1e,2014-12-27 11:21:00,
2014-12-27 03:26:00,44.2,32.0,30.20,North,10,0.0,0.0,53,0.00,,---,0.00,cosweather0.1e,2014-12-27 11:26:00,
2014-12-27 03:31:00,44.1,32.0,30.20,North,11,0.0,0.0,53,0.00,,---,0.00,cosweather0.1e,2014-12-27 11:31:00,
2014-12-27 03:36:00,43.9,32.0,30.20,North,11,0.0,0.0,54,0.00,,---,0.00,cosweather0.1e,2014-12-27 11:36:00,
2014-12-27 03:41:00,43.9,32.0,30.20,North,11,0.0,0.0,54,0.00,,---,0.00,cosweather0.1e,2014-12-27 11:41:00,
2014-12-27 03:46:00,43.9,32.0,30.20,North,10,0.0,0.0,54,0.00,,---,0.00,cosweather0.1e,2014-12-27 11:46:00,
2014-12-27 03:51:00,43.5,32.0,30.20,North,11,0.0,0.0,54,0.00,,---,0.00,cosweather0.1e,2014-12-27 11:51:00,
2014-12-27 03:56:00,43.3,32.0,30.20,North,11,0.0,0.0,54,0.00,,---,0.00,cosweather0.1e,2014-12-27 11:56:00,
2014-12-27 04:01:00,43.3,32.0,30.20,North,11,0.0,0.0,55,0.00,,---,0.00,cosweather0.1e,2014-12-27 12:01:00,
2014-12-27 04:06:00,43.2,32.0,30.20,North,11,0.0,0.0,54,0.00,,---,0.00,cosweather0.1e,2014-12-27 12:06:00,
2014-12-27 04:11:00,43.0,32.0,30.20,North,11,0.0,2.7,54,0.00,,---,0.00,cosweather0.1e,2014-12-27 12:11:00,
2014-12-27 04:16:00,43.2,32.0,30.20,NNE,22,0.0,3.1,53,0.00,,---,0.00,cosweather0.1e,2014-12-27 12:16:00,
2014-12-27 04:21:00,43.5,32.0,30.20,NNE,20,0.0,0.0,53,0.00,,---,0.00,cosweather0.1e,2014-12-27 12:21:00,
2014-12-27 04:26:00,43.9,32.0,30.20,South,176,0.0,3.1,53,0.00,,---,0.00,cosweather0.1e,2014-12-27 12:26:00,
2014-12-27 04:31:00,43.2,32.0,30.20,South,180,0.0,0.0,52,0.00,,---,0.00,cosweather0.1e,2014-12-27 12:31:00,
2014-12-27 04:36:00,43.0,32.0,30.20,ESE,114,0.0,0.0,53,0.00,,---,0.00,cosweather0.1e,2014-12-27 12:36:00,
2014-12-27 04:41:00,43.0,32.0,30.20,ESE,103,0.0,0.0,53,0.00,,---,0.00,cosweather0.1e,2014-12-27 12:41:00,
2014-12-27 04:46:00,43.0,32.0,30.24,ESE,102,0.0,0.0,54,0.00,,---,0.00,cosweather0.1e,2014-12-27 12:46:00,
2014-12-27 04:51:00,43.0,32.0,30.24,East,100,0.0,0.0,56,0.00,,---,0.00,cosweather0.1e,2014-12-27 12:51:00,
2014-12-27 04:56:00,43.0,32.0,30.24,East,101,0.0,0.0,56,0.00,,---,0.00,cosweather0.1e,2014-12-27 12:56:00,
2014-12-27 05:01:00,43.0,32.0,30.24,East,100,0.0,0.0,56,0.00,,---,0.00,cosweather0.1e,2014-12-27 13:01:00,
2014-12-27 05:06:00,43.0,32.0,30.24,East,100,0.0,0.0,56,0.00,,---,0.00,cosweather0.1e,2014-12-27 13:06:00,
2014-12-27 05:11:00,42.8,32.0,30.24,East,100,0.0,0.0,56,0.00,,---,0.00,cosweather0.1e,2014-12-27 13:11:00,
2014-12-27 05:16:00,42.8,32.0,30.24,ENE,71,0.0,0.0,57,0.00,,---,0.00,cosweather0.1e,2014-12-27 13:16:00,
2014-12-27 05:21:00,42.4,32.0,30.24,ENE,72,0.0,0.0,57,0.00,,---,0.00,cosweather0.1e,2014-12-27 13:21:00,
2014-12-27 05:26:00,42.3,32.0,30.24,ENE,71,0.0,0.0,57,0.00,,---,0.00,cosweather0.1e,2014-12-27 13:26:00,
2014-12-27 05:31:00,42.1,32.0,30.24,NNE,20,0.0,0.0,57,0.00,,---,0.00,cosweather0.1e,2014-12-27 13:31:00,
2014-12-27 05:36:00,42.1,32.0,30.24,NNE,21,0.0,0.0,58,0.00,,---,0.00,cosweather0.1e,2014-12-27 13:36:00,
2014-12-27 05:41:00,42.1,32.0,30.24,NE,39,0.0,0.0,58,0.00,,---,0.00,cosweather0.1e,2014-12-27 13:41:00,
2014-12-27 05:46:00,42.3,32.0,30.20,NE,38,0.0,0.0,58,0.00,,---,0.00,cosweather0.1e,2014-12-27 13:46:00,
2014-12-27 05:51:00,42.4,32.0,30.20,NE,39,0.0,0.0,58,0.00,,---,0.00,cosweather0.1e,2014-12-27 13:51:00,
2014-12-27 05:56:00,42.8,32.0,30.20,NE,38,0.0,0.0,57,0.00,,---,0.00,cosweather0.1e,2014-12-27 13:56:00,
2014-12-27 06:01:00,43.0,32.0,30.24,NE,38,0.0,0.0,57,0.00,,---,0.00,cosweather0.1e,2014-12-27 14:01:00,
2014-12-27 06:06:00,43.0,32.0,30.24,NE,39,0.0,0.0,57,0.00,,---,0.00,cosweather0.1e,2014-12-27 14:06:00,
2014-12-27 06:11:00,43.2,32.0,30.24,NE,38,0.0,0.0,56,0.00,,---,0.00,cosweather0.1e,2014-12-27 14:11:00,
2014-12-27 06:16:00,42.8,32.0,30.24,NNE,21,0.0,0.0,56,0.00,,---,0.00,cosweather0.1e,2014-12-27 14:16:00,
2014-12-27 06:21:00,42.4,32.0,30.24,NNE,21,0.0,0.0,56,0.00,,---,0.00,cosweather0.1e,2014-12-27 14:21:00,
2014-12-27 06:26:00,42.3,32.0,30.24,NNE,21,0.0,0.0,56,0.00,,---,0.00,cosweather0.1e,2014-12-27 14:26:00,
2014-12-27 06:31:00,42.3,32.0,30.24,NNE,21,0.0,0.0,56,0.00,,---,0.00,cosweather0.1e,2014-12-27 14:31:00,
2014-12-27 06:36:00,42.4,32.0,30.24,NNE,21,0.0,0.0,56,0.00,,---,0.00,cosweather0.1e,2014-12-27 14:36:00,
2014-12-27 06:41:00,42.4,32.0,30.24,NNE,21,0.0,0.0,56,0.00,,---,0.00,cosweather0.1e,2014-12-27 14:41:00,
2014-12-27 06:46:00,42.4,32.0,30.24,NNE,21,0.0,0.0,56,0.00,,---,0.00,cosweather0.1e,2014-12-27 14:46:00,
2014-12-27 06:51:00,42.4,32.0,30.24,NNE,21,0.0,0.0,56,0.00,,---,0.00,cosweather0.1e,2014-12-27 14:51:00,
2014-12-27 06:56:00,42.3,32.0,30.24,NNE,21,0.0,0.0,55,0.00,,---,0.00,cosweather0.1e,2014-12-27 14:56:00,
2014-12-27 07:01:00,42.3,32.0,30.24,NNE,20,0.0,0.0,56,0.00,,---,0.00,cosweather0.1e,2014-12-27 15:01:00,
2014-12-27 07:06:00,42.3,32.0,30.24,NNE,20,0.0,0.0,56,0.00,,---,0.00,cosweather0.1e,2014-12-27 15:06:00,
2014-12-27 07:11:00,42.1,32.0,30.24,NNE,21,0.0,0.0,55,0.00,,---,0.00,cosweather0.1e,2014-12-27 15:11:00,
2014-12-27 07:16:00,41.9,32.0,30.24,NNE,21,0.0,0.0,55,0.00,,---,0.00,cosweather0.1e,2014-12-27 15:16:00,
2014-12-27 07:21:00,41.7,32.0,30.24,NNE,21,0.0,0.0,55,0.00,,---,0.00,cosweather0.1e,2014-12-27 15:21:00,
2014-12-27 07:26:00,41.7,32.0,30.24,NNE,21,0.0,0.0,55,0.00,,---,0.00,cosweather0.1e,2014-12-27 15:26:00,
2014-12-27 07:31:00,41.5,32.0,30.24,NNE,20,0.0,0.0,56,0.00,,---,0.00,cosweather0.1e,2014-12-27 15:31:00,
2014-12-27 07:36:00,41.4,32.0,30.24,North,1,0.0,0.0,56,0.00,,---,0.00,cosweather0.1e,2014-12-27 15:36:00,
2014-12-27 07:42:00,41.2,32.0,30.24,North,1,0.0,0.0,56,0.00,,---,0.00,cosweather0.1e,2014-12-27 15:42:00,
2014-12-27 07:47:00,41.0,32.0,30.28,North,1,0.0,0.0,57,0.00,,---,0.00,cosweather0.1e,2014-12-27 15:47:00,
2014-12-27 07:52:00,41.0,32.0,30.28,North,1,0.0,0.0,57,0.00,,---,0.00,cosweather0.1e,2014-12-27 15:52:00,
2014-12-27 07:57:00,41.0,32.0,30.28,North,1,0.0,0.0,57,0.00,,---,0.00,cosweather0.1e,2014-12-27 15:57:00,